TimeBST,TemperatureF,Dew PointF,Humidity,Sea Level PressureIn,VisibilityMPH,Wind Direction,Wind SpeedMPH,Gust SpeedMPH,PrecipitationIn,Events,Conditions,WindDirDegrees,DateUTC
12:50 AM,53.6,50.0,88,29.53,6.2,South,13.8,-,N/A,,Scattered Clouds,180,2012-10-17 23:50:00
1:50 AM,53.6,50.0,88,29.53,6.2,South,12.7,-,N/A,,Scattered Clouds,190,2012-10-18 00:50:00
2:50 AM,53.6,50.0,88,29.53,6.2,South,12.7,-,N/A,,Scattered Clouds,190,2012-10-18 01:50:00
3:50 AM,53.6,50.0,88,29.53,6.2,South,13.8,-,N/A,,Scattered Clouds,180,2012-10-18 02:50:00
4:50 AM,55.4,51.8,88,29.50,6.2,South,11.5,-,N/A,,Partly Cloudy,190,2012-10-18 03:50:00
5:20 AM,55.4,51.8,88,29.50,6.2,South,11.5,-,N/A,,Partly Cloudy,190,2012-10-18 04:20:00
5:50 AM,55.4,51.8,88,29.53,6.2,South,12.7,-,N/A,,Partly Cloudy,180,2012-10-18 04:50:00
6:20 AM,55.4,50.0,82,29.53,6.2,South,10.4,-,N/A,,Partly Cloudy,190,2012-10-18 05:20:00
6:50 AM,55.4,51.8,88,29.53,6.2,South,9.2,-,N/A,,Partly Cloudy,190,2012-10-18 05:50:00
7:20 AM,55.4,51.8,88,29.53,6.2,South,9.2,-,N/A,,Partly Cloudy,180,2012-10-18 06:20:00
7:50 AM,55.4,51.8,88,29.53,6.2,South,10.4,-,N/A,,Partly Cloudy,190,2012-10-18 06:50:00
8:20 AM,55.4,51.8,88,29.56,6.2,South,11.5,-,N/A,,Scattered Clouds,190,2012-10-18 07:20:00
9:20 AM,55.4,51.8,88,29.59,6.2,South,12.7,-,N/A,,Partly Cloudy,190,2012-10-18 08:20:00
9:50 AM,57.2,51.8,82,29.62,6.2,South,12.7,-,N/A,,Partly Cloudy,190,2012-10-18 08:50:00
10:20 AM,59.0,51.8,77,29.59,6.2,South,11.5,-,N/A,,Partly Cloudy,190,2012-10-18 09:20:00
10:50 AM,57.2,51.8,82,29.62,6.2,SSW,13.8,-,N/A,,Partly Cloudy,200,2012-10-18 09:50:00
11:20 AM,59.0,51.8,77,29.62,6.2,South,12.7,-,N/A,,Partly Cloudy,190,2012-10-18 10:20:00
12:20 PM,60.8,51.8,72,29.62,6.2,SSW,16.1,-,N/A,,Partly Cloudy,210,2012-10-18 11:20:00
12:50 PM,59.0,51.8,77,29.62,6.2,South,16.1,-,N/A,,Partly Cloudy,190,2012-10-18 11:50:00
1:20 PM,59.0,51.8,77,29.62,6.2,South,12.7,-,N/A,,Partly Cloudy,190,2012-10-18 12:20:00
1:50 PM,60.8,51.8,72,29.62,6.2,SSW,13.8,-,N/A,,Partly Cloudy,210,2012-10-18 12:50:00
2:20 PM,59.0,50.0,72,29.62,6.2,SSW,15.0,-,N/A,,Partly Cloudy,210,2012-10-18 13:20:00
2:50 PM,60.8,50.0,68,29.62,6.2,South,12.7,-,N/A,,Partly Cloudy,190,2012-10-18 13:50:00
3:20 PM,60.8,50.0,68,29.62,6.2,SSW,12.7,-,N/A,,Partly Cloudy,210,2012-10-18 14:20:00
3:50 PM,60.8,50.0,68,29.62,6.2,South,11.5,-,N/A,,Partly Cloudy,190,2012-10-18 14:50:00
4:20 PM,59.0,51.8,77,29.65,6.2,South,11.5,-,N/A,,Scattered Clouds,180,2012-10-18 15:20:00
4:50 PM,59.0,51.8,77,29.65,6.2,South,11.5,-,N/A,,Partly Cloudy,180,2012-10-18 15:50:00
5:20 PM,59.0,51.8,77,29.65,6.2,South,10.4,-,N/A,,Partly Cloudy,180,2012-10-18 16:20:00
5:50 PM,59.0,51.8,77,29.68,6.2,South,10.4,-,N/A,,Partly Cloudy,170,2012-10-18 16:50:00
6:20 PM,57.2,51.8,82,29.68,6.2,South,11.5,-,N/A,,Partly Cloudy,170,2012-10-18 17:20:00
6:50 PM,59.0,53.6,82,29.68,6.2,South,10.4,-,N/A,,Partly Cloudy,180,2012-10-18 17:50:00
7:20 PM,57.2,51.8,82,29.68,6.2,South,11.5,-,N/A,,Partly Cloudy,180,2012-10-18 18:20:00
7:50 PM,57.2,51.8,82,29.68,6.2,South,12.7,-,N/A,,Partly Cloudy,170,2012-10-18 18:50:00
8:20 PM,57.2,51.8,82,29.68,6.2,South,10.4,-,N/A,,Partly Cloudy,190,2012-10-18 19:20:00
8:50 PM,57.2,51.8,82,29.71,6.2,South,9.2,-,N/A,,Partly Cloudy,180,2012-10-18 19:50:00
9:20 PM,57.2,51.8,82,29.68,6.2,South,9.2,-,N/A,,Partly Cloudy,170,2012-10-18 20:20:00
9:50 PM,57.2,53.6,88,29.71,-9999.0,South,8.1,-,N/A,,Clear,170,2012-10-18 20:50:00
10:20 PM,57.2,51.8,82,29.71,-9999.0,South,5.8,-,N/A,,Clear,170,2012-10-18 21:20:00
10:50 PM,55.4,51.8,88,29.71,6.2,South,8.1,-,N/A,Rain,Light Rain,170,2012-10-18 21:50:00
11:50 PM,55.4,51.8,88,29.74,6.2,South,6.9,-,N/A,Rain,Light Rain,170,2012-10-18 22:50:00